Starlink 1262

operational
NORAD ID: 45366 Int'l Des: 2020-019 Owner: SPXS Country: US Constellation: starlink
LEOCIRCULARSTARLINK_TYPE

Über Starlink 1262

Beschreibung wird geladen...

Live-Position

3D-Globus wird geladen...

Nächste Überflüge

Höhenverlauf

Altitude vs Time

uPlot chart will show altitude changes over time

Zweizeiliger Elementsatz

1 45366U 20019G 25351.75361877 .00000652 00000-0 62663-4 0 9996
2 45366 53.0547 174.4395 0001389 89.6667 270.4481 15.06398769317388
Epoch: 17. Dez. 2025 • Age: 16 hours

Aktueller Status

Höhe 547.1 km
Geschwindigkeit 7.59 km/s
Subsatellitenpunkt 16.78°N, 54.35°W
Startdatum 18. März 2020
Alter 5.7 years
Typ internet

Technische Details

Klassifizierung Payload
Masse 260.00 kg
Trockenmasse 248.00 kg
Gesamtmasse 260.00 kg
Länge 0.20 m
Durchmesser 2.80 m
Spannweite 9.00 m
Form Box + pan
Hersteller SPXS
Bus-Typ Starlink
Phasenstatus In Orbit
Besitzer/Staat SPXS/US

Große Konstellationen

Loading constellations...